{"data":{"norad_id":69522,"intl_designator":"2026-133Q","name":"STARLINK-37379","alt_names":[],"object_type":"PAYLOAD","status":"ACTIVE","operator":null,"country":"US","launch_date":"2026-06-12","launch_site_code":"AFETR","launch_vehicle":null,"mission":null,"orbit_class":"UNKNOWN","rcs_meters":null,"size_class":null,"mass_kg":null,"dimensions":null,"purposes":["comms"],"wikipedia_slug":null,"has_3d_model":false,"image_url":null,"decayed_at":null,"tle_current":{"epoch":"2026-09-19T10:38:45.933216Z","epoch_age_seconds":116772,"freshness":"FRESH","line1":"1 69522U 26133Q   26262.44358719  .00014885  00000+0  45048-3 0  9997","line2":"2 69522  53.1566 234.5229 0001901  99.3891 260.7326 15.34422510 16605","mean_motion":15.3442251,"eccentricity":0.0001901,"inclination_deg":53.1566,"raan_deg":234.5229,"arg_perigee_deg":99.3891,"mean_anomaly_deg":260.7326,"bstar":0.00045048,"rev_number":1660,"period_min":93.846381333392,"perigee_km":461.33590554997,"apogee_km":463.93676757253,"semimajor_km":6840.7733365612,"source":"CELESTRAK","updated_at":"2026-09-20T09:00:44.213333Z"}}}